RH
89 59 44 46 100 100 48 100 100 71 100 100 100 97 100 100 100 100 100 94 81 62 68 61 64 58 54 51 54 58 49 57 66 75 69 71 67 62 46 52 61 69 78
82 80 98 100 100 68 99 100 99 100 100 100 100 100 100 100 100 100 92 92 78 70 64 59 57 57 60 56 53 55 84 77 62 60 72 77 88 86 76 54 54 56 84
74 71 60 84 87 100 75 100 100 92 90 100 100 100 100 100 95 100 85 69 61 62 57 60 51 74 76 69 53 52 53 68 74 82 72 54 66 88 75 76 72 73 90
37 80 74 93 100 100 100 100 81 100 100 99 89 87 72 87 80 66 68 83 76 48 64 61 58 57 50 39 42 46 51 55 58 62 66 77 74 61 61 65 67 66 79
99 100 100 97 100 92 100 100 100 100 100 88 100 100 98 74 82 100 100 98 94 87 74 60 59 58 57 55 57 67 56 54 62 70 54 56 62 76 68 55 68 71 83
100 100 100 100 100 100 100 100 100 100 98 100 93 75 100 100 100 100 100 100 100 100 100 100 100 100 84 71 71 62 91 81 69 79 87 69 72 70 68 51 64 79 84
100 100 100 100 94 100 100 100 100 100 100 100 100 100 60 96 98 100 100 99 91 77 83 86 92 98 100 96 88 84 86 73 81 80 81 84 72 72 78 67 46 45 70
99 100 100 100 100 100 100 100 100 100 100 100 100 100 100 100 90 67 97 89 77 64 61 52 41 40 49 56 64 89 96 92 81 74 70 76 80 85 78 67 67 60 40
100 98 100 100 100 100 100 97 100 100 100 98 100 100 100 100 100 100 100 100 100 92 81 69 53 50 48 32 24 37 61 59 68 57 56 57 63 63 68 66 62 62 60
100 94 100 100 100 100 100 99 100 100 100 100 100 100 100 100 99 100 96 81 81 81 76 68 61 50 46 46 32 25 22 43 44 50 35 40 46 57 52 50 50 50 54
100 100 100 100 99 100 97 100 100 100 100 92 92 90 85 87 84 82 78 83 79 62 43 33 32 37 41 40 41 35 33 37 38 38 38 33 32 32 37 42 46 45 42
100 87 93 95 98 98 100 100 100 99 100 98 93 79 81 76 69 57 57 59 58 55 52 42 39 40 31 29 25 24 27 21 20 27 29 30 30 30 30 30 31 34 34
88 74 71 92 100 100 100 100 100 100 85 73 72 62 62 56 55 46 42 47 57 47 42 43 29 16 14 13 12 13 13 13 13 13 14 16 17 18 18 22 24 25 26
82 61 76 67 69 81 97 90 90 97 84 66 48 43 45 47 54 43 36 32 33 33 29 13 11 11 11 11 11 12 12 11 11 11 11 11 11 11 12 12 14 16 18
97 100 100 92 60 57 61 51 55 70 56 57 35 34 66 69 33 17 16 13 11 10 9 9 9 8 9 9 10 10 10 10 11 12 12 12 11 11 11 10 10 10 11
79 87 93 89 87 61 70 86 72 64 61 75 78 60 38 15 13 11 10 10 10 10 11 11 11 12 13 12 11 11 10 11 11 13 16 16 14 14 12 12 12 11 11
48 47 45 45 43 40 37 36 30 28 27 17 13 12 11 12 11 12 14 14 17 17 16 15 13 12 12 14 15 16 17 19 18 21 24 24 18 18 17 15 16 15 14
24 21 19 18 17 16 17 16 13 12 12 11 10 10 11 11 15 19 19 19 18 19 18 17 16 17 18 22 24 25 27 34 36 36 25 21 22 25 24 23 21 21 20
26 26 22 16 17 16 15 14 14 13 12 12 12 13 14 16 18 18 21 24 25 25 27 26 27 28 32 35 38 39 36 32 29 28 26 29 29 25 24 24 24 25 23
28 27 23 21 19 20 20 17 15 14 13 12 12 13 20 20 20 24 28 30 32 32 33 34 34 35 38 42 42 40 36 35 35 34 35 33 33 28 30 33 32 29 25
35 30 27 23 21 21 21 22 21 17 18 15 12 15 22 21 27 31 35 39 42 44 45 47 51 51 47 45 52 50 48 41 36 35 33 34 31 35 32 30 32 33 31
41 36 33 30 29 28 29 29 30 30 26 26 26 24 26 28 33 36 41 43 44 47 54 60 64 69 73 67 63 62 65 65 48 42 36 34 32 27 27 27 28 27 26
70 54 49 47 44 36 31 28 29 33 32 32 32 28 26 31 37 37 38 48 48 49 50 55 58 62 66 68 69 63 61 56 57 59 54 50 39 30 32 31 30 28 32
42 43 50 51 45 46 44 43 39 32 26 29 31 31 28 31 34 35 43 53 54 56 61 64 62 69 68 79 67 58 50 44 36 31 36 36 40 43 42 35 35 31 38
26 28 32 35 37 39 39 44 48 45 42 42 35 31 32 37 41 46 57 68 72 64 62 66 71 68 64 59 58 51 47 43 41 35 34 36 36 38 33 31 34 37 49
33 34 32 28 27 30 44 55 60 61 61 62 64 63 51 51 57 63 76 85 79 78 80 76 75 76 74 73 60 51 41 38 35 38 36 34 35 35 35 38 46 55 58
Wind_Speed
21 28 36 33 41 29 28 27 23 25 30 29 27 16 20 25 28 33 32 31 31 26 25 26 26 27 26 25 23 23 24 22 22 24 24 25 25 27 30 33 34 37 35
18 36 37 43 34 24 29 23 23 21 22 25 22 27 32 27 30 33 34 34 33 30 26 23 26 25 24 27 26 26 24 24 25 26 28 28 27 28 28 30 35 37 38
24 34 35 37 35 18 21 28 20 21 30 27 27 28 33 34 24 18 22 25 29 22 26 27 25 23 22 23 26 27 30 28 26 26 28 29 32 32 30 30 36 38 38
27 31 29 41 29 29 34 30 32 29 26 34 34 34 38 30 31 33 31 26 29 30 27 25 25 24 26 29 30 30 29 30 32 30 29 27 33 36 37 32 32 37 43
35 45 37 44 37 39 36 34 26 39 26 33 35 32 36 36 36 30 26 25 24 25 28 30 33 33 32 31 32 30 30 30 31 30 31 31 31 32 36 40 38 35 38
50 46 38 42 44 37 39 38 36 25 34 28 26 37 30 30 30 34 29 26 25 30 32 31 33 33 33 33 33 33 33 33 34 34 31 29 29 33 34 34 41 41 39
42 53 46 34 46 44 43 39 43 43 30 41 32 30 36 37 35 35 34 35 38 37 30 28 28 31 32 36 37 37 39 39 41 41 40 39 38 34 35 38 37 38 44
41 46 40 40 39 48 43 42 44 43 45 36 38 37 33 31 36 42 37 39 41 42 36 31 32 34 36 38 41 39 39 43 44 44 44 44 43 42 42 41 40 40 41
37 50 46 44 46 45 45 50 41 44 50 47 45 46 43 43 43 39 37 39 39 40 36 39 40 41 43 43 43 45 45 45 47 44 45 46 47 48 48 48 47 47 46
30 47 46 43 45 47 47 45 42 39 42 52 50 49 47 47 44 44 41 47 47 45 47 50 52 52 54 55 48 49 51 53 50 52 50 48 51 53 53 53 52 52 51
33 38 45 41 49 35 52 49 52 43 37 46 50 55 52 50 53 53 53 52 53 52 52 51 52 53 55 58 60 55 53 50 56 56 56 57 56 56 57 57 58 58 56
34 42 43 44 40 43 40 44 49 53 48 46 48 50 51 54 51 48 49 54 55 54 56 55 58 56 57 50 46 49 56 53 53 55 60 62 62 61 61 62 64 63 63
41 41 42 47 46 47 42 41 43 47 53 56 52 57 56 53 54 55 52 52 51 46 54 57 57 47 47 47 43 43 44 46 47 49 51 53 55 57 59 62 66 69 70
41 42 38 48 45 45 49 50 55 50 51 53 51 55 52 50 50 55 55 47 46 48 54 50 43 42 44 46 45 44 46 47 50 51 50 50 52 53 54 58 61 63 65
47 46 41 43 40 39 41 47 54 58 49 44 48 51 53 55 54 46 41 38 38 41 44 44 46 45 44 43 45 45 45 47 46 45 45 46 47 52 55 56 59 61 63
40 41 43 44 48 47 48 48 46 49 55 54 54 52 49 46 42 39 37 37 37 38 40 41 43 44 43 42 42 44 45 45 47 49 50 52 57 59 57 59 60 59 61
31 34 37 37 37 37 37 37 37 37 38 38 38 42 41 40 38 38 38 37 39 41 42 43 44 44 42 44 44 47 48 49 52 55 57 60 62 64 64 66 66 68 70
29 31 33 33 32 32 32 31 32 35 36 38 41 41 39 39 39 39 40 44 44 45 46 46 47 46 45 47 48 51 53 56 59 63 63 63 67 68 70 72 74 74 76
35 34 33 32 32 33 34 36 37 37 39 39 38 39 40 42 42 42 41 43 44 45 46 48 48 47 48 50 52 57 60 63 64 67 68 72 75 75 76 77 78 81 82
35 35 36 36 35 35 36 37 38 40 41 43 43 44 44 45 44 45 45 45 46 46 47 48 49 50 51 55 58 62 64 65 67 71 74 78 79 79 80 82 85 88 89
38 40 39 39 40 40 40 42 42 44 44 45 48 50 50 49 49 48 48 49 50 51 52 53 55 58 59 61 65 69 73 75 77 79 79 80 80 82 86 88 91 92 93
38 38 40 41 44 45 47 49 49 49 51 51 52 54 54 53 53 52 52 55 57 58 58 59 60 63 67 69 72 75 77 84 85 87 86 87 87 88 92 93 95 97 98
44 43 43 45 45 43 45 46 49 52 54 56 57 58 59 58 57 58 60 61 61 63 64 65 67 68 72 77 79 81 84 87 87 92 94 94 96 98 100 101 102 100 100
48 48 48 51 49 49 51 52 54 55 56 59 61 63 64 65 65 67 68 67 68 69 71 73 75 78 79 82 86 90 93 95 97 94 95 98 100 103 107 112 113 111 114
53 54 55 56 56 56 57 58 59 59 61 63 65 68 69 70 72 74 76 75 75 77 79 81 84 86 87 91 93 96 101 104 104 104 98 102 104 106 109 106 110 119 122
61 61 62 62 61 62 63 64 65 67 69 71 72 73 74 76 78 80 81 82 82 84 85 87 89 92 94 97 100 104 108 108 109 107 108 109 108 111 110 112 117 120 121
Wind_Direction
200 199 201 205 198 214 228 210 221 226 236 234 242 248 246 243 242 241 245 255 262 270 272 263 256 253 251 253 258 256 253 250 250 246 252 247 248 249 248 245 245 239 240
217 184 185 188 203 216 220 214 211 209 221 227 228 225 231 243 250 254 255 258 261 270 271 266 259 258 257 258 254 256 256 257 253 251 246 248 249 248 246 250 245 244 238
195 183 182 188 184 193 208 212 201 230 236 220 220 232 243 248 252 249 271 275 270 274 276 273 260 256 261 265 260 257 254 255 258 258 253 252 248 247 251 246 241 237 237
161 174 183 183 179 181 179 196 210 195 202 225 236 240 241 253 256 262 270 271 278 275 270 267 264 267 277 284 275 270 263 261 259 262 257 257 251 252 251 251 246 244 242
155 182 183 190 192 185 186 189 194 216 226 237 246 249 254 254 258 261 261 263 263 267 266 266 266 270 269 268 265 265 266 266 267 264 261 257 256 254 253 253 251 248 245
176 196 196 192 196 204 208 209 207 214 230 223 235 241 241 240 243 247 254 251 257 261 256 259 260 261 264 263 259 258 257 260 263 263 265 263 262 257 252 252 249 247 249
190 196 194 197 203 214 218 217 222 226 227 226 235 230 251 249 248 254 255 265 266 268 267 266 266 265 260 258 259 258 256 257 259 259 263 265 262 260 258 254 252 252 250
196 188 198 204 209 213 218 228 229 236 232 241 231 245 250 239 251 256 258 259 263 262 261 266 269 271 268 267 268 264 260 256 258 259 260 263 266 266 261 257 254 253 253
198 198 204 214 213 218 219 227 239 243 236 242 246 260 264 258 262 265 261 262 266 270 269 273 274 273 274 277 273 271 269 267 261 260 258 258 260 260 261 258 256 255 256
207 210 211 222 223 220 221 229 239 247 255 248 251 258 266 268 270 273 273 267 268 273 271 274 277 280 280 273 275 275 273 265 267 263 264 261 258 258 260 258 256 254 253
218 216 217 230 220 236 235 242 241 251 251 255 260 261 262 269 271 273 276 275 277 275 280 282 281 281 282 276 273 271 271 272 271 270 269 266 268 266 261 260 259 257 255
218 218 219 227 236 241 240 243 246 251 261 266 267 268 270 271 276 277 281 279 276 277 278 280 280 283 283 279 275 274 273 275 273 270 267 267 267 267 267 262 261 260 260
233 230 235 229 234 240 237 241 250 255 258 264 269 268 271 273 273 280 283 280 276 277 281 282 281 275 274 273 274 274 274 272 269 267 265 265 266 265 267 267 264 261 261
230 236 237 233 241 244 241 243 248 257 257 258 263 268 269 273 277 277 277 274 276 277 278 274 273 273 272 272 271 269 267 267 268 269 271 272 270 268 266 265 264 263 262
237 235 243 239 245 252 250 255 253 251 259 263 261 264 268 272 271 266 266 270 275 275 274 274 273 274 275 275 272 271 272 273 275 276 282 288 286 280 279 275 269 266 264
242 247 249 250 251 256 254 259 257 259 258 261 261 263 260 259 262 265 268 271 273 274 276 275 277 280 280 281 281 281 283 283 285 289 292 293 294 295 294 292 290 286 278
236 239 242 245 248 251 253 254 255 254 253 253 253 253 256 259 264 266 267 269 273 275 276 275 278 278 278 279 281 282 283 283 284 287 290 290 294 294 292 295 292 289 288
240 241 243 244 246 246 246 244 250 251 251 252 252 256 260 262 264 266 269 271 274 277 277 276 277 277 279 283 284 285 286 287 286 284 284 287 287 287 288 290 290 288 289
248 248 248 247 249 250 250 250 254 253 253 255 256 261 263 263 264 267 268 272 276 279 281 280 280 282 285 286 288 288 288 289 288 287 287 287 287 286 286 288 288 284 282
253 256 255 254 252 254 253 254 255 255 259 260 261 262 263 264 266 269 271 274 277 281 283 285 287 287 289 291 292 292 290 291 291 291 289 287 287 285 286 284 281 279 279
253 253 256 257 256 256 257 258 259 259 261 260 259 261 265 266 268 269 272 274 278 282 284 287 290 290 290 292 293 294 294 294 293 294 292 288 286 283 284 286 284 282 281
255 255 258 261 262 261 261 261 261 260 259 260 260 260 263 265 266 269 273 277 278 281 284 286 288 289 290 292 293 293 292 292 294 293 293 291 289 289 290 287 287 285 283
253 255 259 261 263 266 266 265 264 262 261 262 262 262 264 266 266 269 273 278 279 282 284 285 286 287 288 290 290 291 292 291 290 290 292 292 293 293 293 290 288 286 285
254 258 259 261 263 264 265 267 266 266 265 264 263 264 266 268 269 271 274 277 280 282 285 286 286 287 289 289 290 292 292 291 290 291 292 292 292 292 290 292 289 287 287
256 257 259 260 263 265 267 268 268 268 267 268 267 267 267 270 271 273 275 277 280 282 284 285 286 287 288 289 290 291 293 293 292 293 294 293 294 292 292 292 289 286 289
258 259 262 263 263 264 265 266 267 267 269 270 271 270 269 269 271 273 275 277 280 283 285 286 287 288 289 290 291 292 292 292 293 294 294 296 294 293 294 294 294 296 294